Other Public Products
Issued by NWS Grand Forks, ND

Home | Current Version | Previous Version | Graphics & Text | Print | Product List | Glossary On
Versions: 1 2 3 4 5 6 7 8 9 10 11 12 13 14 15 16 17 18 19 20 21 22 23 24 25 26 27 28 29 30 31 32 33 34 35 36 37 38 39 40 41 42 43 44 45 46 47 48 49 50
000
FPUS83 KFGF 021110
OPUFGF
PRAIRIE TO PINES WEATHER ROUNDUP
NATIONAL WEATHER SERVICE EASTERN NORTH DAKOTA/GRAND FORKS ND
600 AM CDT THU OCT 02 2014

 **SATELLITE DATA USED TO AUGMENT SKY COVER AT AUTOMATED STATIONS**
 *****  WEATHER ACROSS EASTERN NORTH DAKOTA  *****

CITY           SKY/WX    TMP DP  RH WIND       PRES   REMARKS
GRAND FORKS    CLOUDY    48  46  93 SW5       29.80R
GRAND FORKS AF CLOUDY    49  49  99 W6        29.81R
GRAND CITY NWS   N/A     46 N/A N/A W3          N/A
BUXTON         NOT AVBL
DEVILS LAKE    MOCLDY    48  41  76 W9        29.81R
FARGO          CLOUDY    49  45  86 W9        29.83S
WAHPETON ARPT  PTSUNNY   45  41  87 W5        29.85R
$$

 *****  WEATHER ACROSS CENTRAL AND WESTERN NORTH DAKOTA  *****

CITY           SKY/WX    TMP DP  RH WIND       PRES   REMARKS
JAMESTOWN      CLOUDY    48  46  93 W6        29.85R
BISMARCK       CLEAR     40  39  97 CALM      29.89S
MINOT          CLEAR     44  40  85 SW10      29.83R
MINOT AFB      CLEAR     44  43  96 SW9       29.82R
GARRISON         N/A     43  42  97 W7        29.85S
WILLISTON      MOCLDY    43  40  89 SE3       29.83F
DICKINSON      PTCLDY    39  35  86 SW3       29.89S
HETTINGER      CLEAR     35  32  88 NW5       29.94S
$$

 *****  OTHER OBSERVATIONS NORTHEAST NORTH DAKOTA  *****

CITY           SKY/WX    TMP DP  RH WIND       PRES   REMARKS
WALHALLA       FAIR      46  46 100 W3        29.79R
LANGDON        FAIR      43  41  93 W7        29.79R
CAVALIER       FAIR      46  45  93 W6        29.78S
GRAFTON        FAIR      46  46 100 W7        29.79R
CANDO          FAIR      39  39 100 W7        29.82R
FORT TOTTEN    NOT AVBL
ROLLA          FAIR      37  37 100 SW6       29.81R
RUGBY          FAIR      39  39 100 SW6       29.82S
 ***** THE ABOVE OBSERVATIONS ARE NON NWS ARE NOT QUALITY
        CONTROLLED AND MAY MIS-REPORT RAIN FOR SNOW...
$$

 *****  OTHER OBSERVATIONS SOUTHEAST NORTH DAKOTA *****

CITY           SKY/WX    TMP DP  RH WIND       PRES   REMARKS
COOPERSTOWN    NOT AVBL
VALLEY CITY    FAIR      46  46 100 W10       29.85S
OAKES            N/A     46  46 100 SW5       29.88R
GWINNER          N/A     48  48 100 W7        29.87S
SHEYENNE NWR     N/A     48  46  94 W3        29.95S
BUFFALO        NOT AVBL
WYNDMERE         N/A     50  48  93 W3          N/A
 ***** THE ABOVE OBSERVATIONS ARE NON NWS ARE NOT QUALITY
       CONTROLLED AND MAY MIS-REPORT RAIN FOR SNOW...
$$

  *****  WEATHER ACROSS NORTHERN MINNESOTA  *****

CITY           SKY/WX    TMP DP  RH WIND       PRES   REMARKS
FLAG ISLAND    PTCLDY    50  48  93 SW9       29.73S
WARROAD        PTCLDY    48  45  87 SW5       29.77R
ROSEAU         PTCLDY    48  45  87 SW5       29.77R
HALLOCK        MOCLDY    48  46  93 W5        29.77S
THF RVR FALLS  PTCLDY    48  45  87 SW6       29.81R
HALSTAD          N/A     47  45  92 W6          N/A
FOSSTON        CLEAR     45  43  93 CALM      29.82R
BAUDETTE       CLEAR     49  48  97 CALM      29.76S
WASKISH        CLOUDY    55  52  88 CALM      29.79R
CROOKSTON      MOCLDY    48  46  93 W3        29.82R
$$
  *****  WEATHER ACROSS CENTRAL AND WEST MINNESOTA  *****

CITY           SKY/WX    TMP DP  RH WIND       PRES   REMARKS
BEMIDJI        PTCLDY    50  48  94 SW6       29.81S
PARK RAPIDS    CLEAR     47  46  97 CALM      29.82F
WADENA         PTCLDY    48  46  93 W5        29.83R
DETROIT LAKES  MOCLDY    50  46  87 W5        29.84S
MOORHEAD       NOT AVBL
FERGUS FALLS   MOCLDY    48  46  93 CALM      29.85S
ELBOW LAKE     FAIR      48  47  97 NW5       29.84F
MORRIS MN      MOCLDY    46  45  93 NW5       29.85R
STAPLES        CLEAR     43  43 100 CALM      29.83F FOG
WHEATON        CLOUDY    48  46  93 W5        29.88R
$$
  *****  WEATHER ELSEWHERE ACROSS MINNESOTA  *****

CITY           SKY/WX    TMP DP  RH WIND       PRES   REMARKS
DULUTH         CLOUDY    52  50  93 W3        29.83S FOG
INTRNTL FALLS  CLOUDY    52  50  93 SW3       29.77S
ELY            CLOUDY    52  50  93 S5        29.81S FOG
CLOQUET        CLOUDY    52  52 100 CALM      29.84R FOG
BRAINERD       FOG       50  50 100 SW3       29.84F VSB 1
HIBBING        CLOUDY    54  51  90 SW3       29.83R
ALEXANDRIA     PTCLDY    50  48  93 NW5       29.85S
SAINT CLOUD    CLOUDY    55  53  93 CALM      29.84S FOG
MINNEAPOLIS    CLOUDY    58  56  93 N6        29.83S FOG
$$

  *****  WEATHER ACROSS SOUTH DAKOTA  *****

CITY           SKY/WX    TMP DP  RH WIND       PRES   REMARKS
SIOUX FALLS    CLOUDY    54  50  86 NW6       29.86R
BROOKINGS      NOT AVBL
WATERTOWN      CLOUDY    47  46  97 N3        29.87S
HURON          CLOUDY    50  48  93 NW6       29.89S
SISSETON         N/A     46  46 100 NW3       29.85S
ABERDEEN       CLOUDY    50  47  89 W5        29.90R
MITCHELL       LGT RAIN  53  51  93 CALM      29.90S
PIERRE         MOCLDY    49  45  86 W9        29.92S
MOBRIDGE       CLEAR     45  42  89 NW3       29.90R
RAPID CITY     CLEAR     39  35  86 W7        30.00R
$$

  *****  SOME WEATHER IN NEARBY STATES *****

CITY           SKY/WX    TMP DP  RH WIND       PRES   REMARKS
GLASGOW MT     CLEAR     42  34  73 NW7       29.84R
GREAT FALLS MT CLOUDY    46  32  58 SW14      29.94R
CHEYENNE WY    CLEAR     37  31  78 NW9       30.11R
SCOTTSBLUFF NE CLEAR     38  38 100 NW6       30.08R
OMAHA NE       FOG       64  63  96 N6        29.80R VSB 1/2
DES MOINES IA  FOG       65  63  93 SE8       29.79R VSB 3/4
DAVENPORT IA   NOT AVBL
CHICAGO IL     CLOUDY    64  57  78 CALM      29.85S
EAU CLAIRE WI  CLOUDY    55  54  96 CALM      29.83S FOG
LA CROSSE WI   CLOUDY    60  56  86 CALM      29.82S
$$

  *****  SOME NATIONAL WEATHER *****

CITY           SKY/WX    TMP DP  RH WIND       PRES   REMARKS
LA GUARDIA NY  CLOUDY    61  54  77 NE13      30.11R
RALEIGH NC     PTCLDY    62  60  93 CALM      30.10R FOG
ATLANTA GA     PTCLDY    66  62  87 CALM      30.08R
NEW ORLEANS LA PTCLDY    77  74  90 SE5       29.96R
OKLAHOMA CITY  PTCLDY    70  68  93 SE10      29.72R
ALBUQUERQUE NM CLEAR     56  33  42 NW16      30.09R
SALT LAKE CITY CLEAR     43  36  76 SE8       30.24R
LOS ANGELES CA CLEAR     64  61  90 CALM      29.89R
BOISE ID       CLEAR     46  35  65 SE9       30.19R
SEATTLE WA     CLOUDY    55  46  71 CALM      30.23S
$$

*** WEATHER ACROSS MANITOBA...SASKATCHEWAN AND ONTARIO ***
                ***ONTARIO***

CITY           SKY/WX    TMP DP  RH WIND       PRES   REMARKS
GERALDTON      CLOUDY    52  52 100 S9        29.80R FOG
THUNDER BAY    CLOUDY    50  50 100 NW3       29.83R
SIOUX LOOKOUT  LGT RAIN  54  52  94 SW6       29.72S
TORONTO        CLOUDY    61  57  88 E5        30.08F FOG
BIG TROUT LK   CLOUDY    54  52  94 SW14G21   29.46R
PICKLE LAKE    CLOUDY    54  52  94 SW9       29.65
DRYDEN         MOCLDY    54  52  94 SW7       29.73R
KENORA         CLOUDY    50  50 100 SW5       29.74R
$$
                *** MANITOBA***

CITY           SKY/WX    TMP DP  RH WIND       PRES   REMARKS
BRANDON        PTCLDY    36  34  93 W7        29.79R
DAUPHIN        CLEAR     41  37  87 SW9       29.73R
ISLAND LAKE    CLOUDY    48  46  93 W16G22    29.54R
PILOT MOUND      N/A     39  37  93 SW6         N/A
THE PAS        CLEAR     36  36 100 W6        29.66R
THOMPSON       MOCLDY    45  45 100 W14       29.49R
WINNIPEG       CLEAR     45  43  93 W9        29.76R
LYNN LAKE      MOCLDY    39  37  93 NW10G17   29.54S
CHURCHILL      CLOUDY    41  41 100 NW10      29.24S FOG
GILLAM         LGT RAIN  46  46 100 W17G23    29.35
$$
                ***SASKATCHEWAN***

CITY           SKY/WX    TMP DP  RH WIND       PRES   REMARKS
ESTEVAN        LGT RAIN  43  41  93 S7        29.79F
KINDERSLEY     MOCLDY    34  28  80 NW18G24   29.92R WCI  23
LLOYDMINSTER   MIX PCPN  34  28  80 NW22G31   29.89R WCI  22
PRINCE ALBERT  CLOUDY    45  34  65 NW16G24   29.71R
REGINA         CLOUDY    45  41  87 N8        29.75F



USA.gov is the U.S. government's official web portal to all federal, state and local government web resources and services.